Radiation Dose at Monitoring Post of Fukushima Daini Nuclear Power Station
Date,Time,MP-1(microSv/h),MP-2(microSv/h),MP-3(microSv/h),MP-4(microSv/h),MP-5(microSv/h),MP-6(microSv/h),MP-7(microSv/h),Wind Direction,Wind Velocity(m/s),Rain
2021/05/01,00:00,0.162,0.149,0.237,0.226,0.229,0.128,0.080,north,2.0,No
2021/05/01,00:10,0.164,0.149,0.238,0.227,0.231,0.127,0.080,north,2.9,No
2021/05/01,00:20,0.165,0.150,0.238,0.227,0.229,0.127,0.080,north-northeast,4.3,No
2021/05/01,00:30,0.162,0.149,0.238,0.227,0.231,0.128,0.079,north,3.8,No
2021/05/01,00:40,0.163,0.150,0.237,0.226,0.230,0.127,0.080,north-northeast,4.2,No
2021/05/01,00:50,0.164,0.149,0.237,0.228,0.229,0.128,0.080,north-northeast,4.6,No
2021/05/01,01:00,0.162,0.148,0.237,0.226,0.231,0.127,0.080,north-northeast,5.3,No
2021/05/01,01:10,0.163,0.149,0.238,0.228,0.230,0.128,0.080,north-northeast,4.3,No
2021/05/01,01:20,0.163,0.150,0.239,0.227,0.229,0.128,0.080,north,4.5,No
2021/05/01,01:30,0.164,0.149,0.237,0.227,0.229,0.128,0.080,north,5.1,No
2021/05/01,01:40,0.163,0.148,0.238,0.226,0.230,0.127,0.079,north,3.7,No
2021/05/01,01:50,0.163,0.150,0.237,0.227,0.231,0.127,0.080,north-northwest,2.9,No
2021/05/01,02:00,0.163,0.149,0.237,0.226,0.229,0.128,0.079,north,2.1,No
2021/05/01,02:10,0.163,0.150,0.238,0.226,0.230,0.127,0.079,north,1.5,No
2021/05/01,02:20,0.164,0.150,0.238,0.228,0.230,0.127,0.079,north-northwest,1.6,No
2021/05/01,02:30,0.164,0.150,0.238,0.226,0.229,0.127,0.080,north,0.6,No
2021/05/01,02:40,0.164,0.149,0.238,0.227,0.230,0.127,0.080,north-northeast,1.1,No
2021/05/01,02:50,0.164,0.150,0.240,0.227,0.229,0.127,0.079,north,1.4,No
2021/05/01,03:00,0.164,0.149,0.239,0.226,0.229,0.128,0.079,north-northwest,1.5,No
2021/05/01,03:10,0.164,0.148,0.238,0.226,0.230,0.128,0.079,north-northwest,1.2,No
2021/05/01,03:20,0.164,0.150,0.239,0.227,0.230,0.128,0.080,-,CALM,No
2021/05/01,03:30,0.165,0.150,0.238,0.227,0.229,0.127,0.079,east-southeast,1.4,No
2021/05/01,03:40,0.163,0.149,0.239,0.227,0.231,0.127,0.080,east-southeast,1.9,No
2021/05/01,03:50,0.164,0.150,0.238,0.229,0.230,0.128,0.079,south-southwest,1.8,No
2021/05/01,04:00,0.164,0.149,0.239,0.228,0.229,0.127,0.080,west-southwest,3.3,No
2021/05/01,04:10,0.163,0.149,0.239,0.228,0.229,0.128,0.079,west-southwest,2.2,No
2021/05/01,04:20,0.164,0.149,0.239,0.226,0.229,0.128,0.080,southwest,3.0,No
2021/05/01,04:30,0.164,0.150,0.238,0.228,0.230,0.127,0.080,west-southwest,2.8,No
2021/05/01,04:40,0.163,0.149,0.239,0.227,0.229,0.129,0.080,west,2.9,No
2021/05/01,04:50,0.166,0.150,0.238,0.226,0.229,0.129,0.079,west,3.0,No
2021/05/01,05:00,0.163,0.150,0.238,0.228,0.229,0.127,0.080,west-northwest,3.9,No
2021/05/01,05:10,0.164,0.149,0.239,0.227,0.229,0.128,0.080,west,2.9,No
2021/05/01,05:20,0.165,0.150,0.239,0.227,0.231,0.128,0.080,west-northwest,3.1,No
2021/05/01,05:30,0.164,0.149,0.239,0.228,0.229,0.128,0.079,west,5.3,No
2021/05/01,05:40,0.163,0.149,0.238,0.228,0.229,0.128,0.080,west,5.2,No
2021/05/01,05:50,0.165,0.150,0.240,0.227,0.231,0.128,0.080,west-northwest,5.6,No
2021/05/01,06:00,0.164,0.150,0.239,0.227,0.229,0.129,0.079,west-northwest,5.2,No
2021/05/01,06:10,0.164,0.149,0.239,0.229,0.231,0.127,0.080,west-northwest,4.2,No
2021/05/01,06:20,0.165,0.149,0.240,0.227,0.229,0.128,0.079,west-northwest,4.3,No
2021/05/01,06:30,0.164,0.151,0.239,0.228,0.230,0.128,0.081,northwest,3.1,No
2021/05/01,06:40,0.165,0.149,0.238,0.228,0.230,0.128,0.079,northwest,4.6,No
2021/05/01,06:50,0.163,0.150,0.238,0.226,0.229,0.128,0.079,west-northwest,6.7,No
2021/05/01,07:00,0.164,0.149,0.237,0.226,0.231,0.128,0.079,northwest,7.8,No
2021/05/01,07:10,0.164,0.149,0.238,0.227,0.230,0.128,0.080,northwest,5.6,No
2021/05/01,07:20,0.164,0.149,0.238,0.228,0.231,0.127,0.079,northwest,5.2,No
2021/05/01,07:30,0.164,0.149,0.237,0.225,0.230,0.127,0.080,northwest,2.8,No
2021/05/01,07:40,0.164,0.148,0.236,0.227,0.230,0.128,0.079,north,1.0,No
2021/05/01,07:50,0.164,0.149,0.238,0.227,0.229,0.128,0.079,east-southeast,2.7,No
2021/05/01,08:00,0.164,0.148,0.238,0.226,0.232,0.129,0.080,southeast,3.6,No
2021/05/01,08:10,0.163,0.148,0.236,0.226,0.228,0.127,0.080,east-southeast,4.0,No
2021/05/01,08:20,0.165,0.149,0.237,0.228,0.233,0.128,0.080,east-southeast,3.0,No
2021/05/01,08:30,0.163,0.149,0.238,0.226,0.229,0.128,0.081,east-southeast,4.6,No
2021/05/01,08:40,0.163,0.150,0.238,0.227,0.230,0.128,0.080,east-southeast,4.0,No
2021/05/01,08:50,0.165,0.149,0.237,0.228,0.231,0.129,0.080,east-southeast,3.9,No
2021/05/01,09:00,0.163,0.149,0.240,0.224,0.229,0.127,0.080,east-southeast,4.6,No
2021/05/01,09:10,0.165,0.148,0.237,0.227,0.232,0.128,0.080,east-southeast,4.6,No
2021/05/01,09:20,0.163,0.150,0.239,0.227,0.230,0.129,0.080,east-southeast,3.9,No
2021/05/01,09:30,0.164,0.150,0.241,0.227,0.231,0.128,0.080,east-southeast,4.7,No
2021/05/01,09:40,0.165,0.150,0.238,0.228,0.231,0.129,0.079,east-southeast,4.8,No
2021/05/01,09:50,0.163,0.151,0.238,0.228,0.228,0.129,0.080,east-southeast,4.6,No
2021/05/01,10:00,0.164,0.149,0.241,0.227,0.231,0.128,0.080,southeast,4.6,No
2021/05/01,10:10,0.166,0.149,0.239,0.229,0.232,0.129,0.080,east-southeast,5.7,No
2021/05/01,10:20,0.164,0.149,0.238,0.228,0.228,0.128,0.080,east-southeast,5.7,No
2021/05/01,10:30,0.163,0.149,0.241,0.227,0.231,0.128,0.080,southeast,7.1,No
2021/05/01,10:40,0.165,0.149,0.241,0.228,0.231,0.129,0.080,south-southeast,8.1,No
2021/05/01,10:50,0.164,0.150,0.238,0.228,0.229,0.128,0.080,-,CALM,No
2021/05/01,11:00,0.163,0.150,0.239,0.228,0.230,0.128,0.080,south-southeast,2.8,No
2021/05/01,11:10,0.166,0.150,0.241,0.226,0.231,0.129,0.080,south-southeast,5.5,No
2021/05/01,11:20,0.165,0.150,0.239,0.230,0.229,0.128,0.080,southeast,3.6,No
2021/05/01,11:30,0.163,0.151,0.239,0.228,0.232,0.129,0.079,southeast,4.4,No
2021/05/01,11:40,0.164,0.149,0.242,0.229,0.232,0.129,0.080,southeast,5.4,No
2021/05/01,11:50,0.165,0.151,0.239,0.230,0.230,0.128,0.081,east-southeast,1.7,No
2021/05/01,12:00,0.164,0.150,0.242,0.229,0.233,0.129,0.080,southeast,1.2,No
2021/05/01,12:10,0.165,0.151,0.240,0.230,0.229,0.130,0.081,southeast,1.0,No
2021/05/01,12:20,0.164,0.150,0.242,0.229,0.233,0.129,0.080,northeast,0.6,No
2021/05/01,12:30,0.165,0.150,0.240,0.230,0.231,0.129,0.081,-,CALM,No
2021/05/01,12:40,0.165,0.150,0.241,0.229,0.231,0.129,0.080,-,CALM,No
2021/05/01,12:50,0.165,0.151,0.241,0.231,0.232,0.129,0.080,east-southeast,1.7,No
2021/05/01,13:00,0.165,0.150,0.240,0.230,0.230,0.129,0.080,south-southeast,1.4,No
2021/05/01,13:10,0.164,0.150,0.240,0.228,0.233,0.129,0.080,east-southeast,1.0,No
2021/05/01,13:20,0.165,0.151,0.240,0.230,0.230,0.128,0.080,-,CALM,No
2021/05/01,13:30,0.164,0.149,0.243,0.228,0.230,0.129,0.081,east,1.2,Yes
2021/05/01,13:40,0.165,0.151,0.242,0.229,0.232,0.130,0.080,east,0.9,No
2021/05/01,13:50,0.166,0.151,0.242,0.231,0.232,0.130,0.080,east,0.7,No
2021/05/01,14:00,0.165,0.152,0.241,0.231,0.232,0.130,0.080,east,2.2,No
2021/05/01,14:10,0.166,0.149,0.243,0.230,0.230,0.130,0.080,east-southeast,1.9,No
2021/05/01,14:20,0.164,0.151,0.242,0.230,0.234,0.128,0.080,-,CALM,No
2021/05/01,14:30,0.165,0.151,0.241,0.230,0.231,0.130,0.080,-,CALM,No
2021/05/01,14:40,0.166,0.150,0.240,0.230,0.233,0.129,0.080,east-southeast,1.1,No
2021/05/01,14:50,0.166,0.150,0.242,0.230,0.231,0.129,0.081,east-southeast,1.9,No
2021/05/01,15:00,0.164,0.151,0.240,0.232,0.233,0.129,0.081,southeast,2.9,No
2021/05/01,15:10,0.165,0.150,0.243,0.229,0.231,0.129,0.080,south-southeast,1.0,No
2021/05/01,15:20,0.164,0.151,0.240,0.230,0.232,0.129,0.080,east-southeast,1.1,No
2021/05/01,15:30,0.164,0.150,0.242,0.228,0.230,0.130,0.080,east-southeast,0.6,No
2021/05/01,15:40,0.165,0.150,0.240,0.230,0.233,0.130,0.080,east-southeast,0.6,No
2021/05/01,15:50,0.165,0.149,0.243,0.228,0.230,0.128,0.080,east-southeast,1.7,No
2021/05/01,16:00,0.166,0.150,0.239,0.230,0.230,0.130,0.080,east-southeast,1.9,No
2021/05/01,16:10,0.164,0.150,0.241,0.229,0.231,0.129,0.081,southeast,1.4,No
2021/05/01,16:20,0.165,0.150,0.240,0.230,0.229,0.129,0.080,southeast,1.3,No
2021/05/01,16:30,0.163,0.149,0.241,0.228,0.233,0.129,0.080,south,2.3,No
2021/05/01,16:40,0.166,0.150,0.240,0.229,0.230,0.130,0.080,south-southeast,2.1,No
2021/05/01,16:50,0.165,0.149,0.241,0.230,0.231,0.129,0.080,south-southeast,2.0,No
2021/05/01,17:00,0.165,0.150,0.241,0.230,0.232,0.128,0.080,south-southwest,0.8,No
2021/05/01,17:10,0.165,0.150,0.242,0.229,0.230,0.130,0.080,-,CALM,No
2021/05/01,17:20,0.164,0.151,0.242,0.231,0.233,0.129,0.080,north-northwest,2.9,No
2021/05/01,17:30,0.165,0.149,0.242,0.230,0.229,0.129,0.079,west-northwest,2.5,No
2021/05/01,17:40,0.164,0.151,0.241,0.232,0.232,0.130,0.080,northwest,2.9,No
2021/05/01,17:50,0.165,0.150,0.242,0.230,0.232,0.129,0.081,west-northwest,2.8,No
2021/05/01,18:00,0.164,0.150,0.241,0.230,0.233,0.128,0.081,west-northwest,3.3,No
2021/05/01,18:10,0.166,0.149,0.241,0.230,0.232,0.129,0.081,northwest,3.7,No
2021/05/01,18:20,0.164,0.151,0.240,0.231,0.231,0.129,0.080,northwest,3.0,No
2021/05/01,18:30,0.166,0.151,0.242,0.229,0.231,0.129,0.080,northwest,1.9,No
2021/05/01,18:40,0.165,0.150,0.241,0.230,0.232,0.129,0.080,northwest,1.3,No
2021/05/01,18:50,0.166,0.150,0.243,0.229,0.233,0.129,0.080,north-northwest,3.1,No
2021/05/01,19:00,0.165,0.150,0.241,0.230,0.232,0.129,0.080,north-northwest,4.2,No
2021/05/01,19:10,0.166,0.151,0.242,0.230,0.232,0.129,0.080,north-northwest,3.7,No
2021/05/01,19:20,0.165,0.150,0.241,0.231,0.232,0.129,0.079,north-northwest,4.4,No
2021/05/01,19:30,0.166,0.151,0.242,0.230,0.231,0.129,0.081,north-northwest,4.8,No
2021/05/01,19:40,0.164,0.150,0.242,0.230,0.233,0.129,0.081,north-northwest,4.9,No
2021/05/01,19:50,0.166,0.150,0.241,0.231,0.231,0.130,0.081,north-northwest,5.7,No
2021/05/01,20:00,0.166,0.151,0.243,0.231,0.233,0.129,0.080,north-northwest,5.1,Yes
2021/05/01,20:10,0.166,0.151,0.241,0.230,0.231,0.130,0.081,north-northwest,5.0,Yes
2021/05/01,20:20,0.167,0.151,0.242,0.230,0.233,0.131,0.081,north-northwest,4.4,Yes
2021/05/01,20:30,0.166,0.152,0.243,0.231,0.232,0.131,0.081,north-northwest,5.6,No
2021/05/01,20:40,0.166,0.152,0.242,0.230,0.233,0.130,0.081,north-northwest,5.3,No
2021/05/01,20:50,0.166,0.152,0.243,0.231,0.233,0.130,0.081,north,5.6,Yes
2021/05/01,21:00,0.169,0.154,0.243,0.231,0.235,0.132,0.083,west-northwest,5.0,Yes
2021/05/01,21:10,0.169,0.157,0.243,0.231,0.232,0.133,0.085,north,6.6,Yes
2021/05/01,21:20,0.170,0.157,0.241,0.230,0.236,0.137,0.089,northwest,1.5,Yes
2021/05/01,21:30,0.173,0.160,0.242,0.231,0.237,0.139,0.093,north-northeast,3.2,Yes
2021/05/01,21:40,0.174,0.161,0.244,0.236,0.239,0.141,0.094,north,3.6,Yes
2021/05/01,21:50,0.174,0.162,0.245,0.234,0.240,0.140,0.094,north,2.7,Yes
2021/05/01,22:00,0.172,0.162,0.247,0.235,0.240,0.140,0.094,northeast,2.5,Yes
2021/05/01,22:10,0.172,0.160,0.247,0.235,0.242,0.139,0.093,north,5.6,No
2021/05/01,22:20,0.170,0.160,0.245,0.234,0.238,0.137,0.090,north,4.6,No
2021/05/01,22:30,0.168,0.157,0.244,0.233,0.237,0.135,0.088,north,6.3,No
2021/05/01,22:40,0.167,0.155,0.241,0.232,0.235,0.133,0.087,north,6.1,No
2021/05/01,22:50,0.165,0.154,0.241,0.231,0.234,0.132,0.085,north,6.4,No
2021/05/01,23:00,0.165,0.153,0.239,0.229,0.233,0.131,0.084,north,5.8,No
2021/05/01,23:10,0.164,0.151,0.237,0.228,0.231,0.129,0.084,north,6.3,No
2021/05/01,23:20,0.164,0.150,0.238,0.228,0.232,0.129,0.082,north-northwest,7.0,No
2021/05/01,23:30,0.164,0.149,0.237,0.227,0.230,0.128,0.082,north-northwest,6.3,No
2021/05/01,23:40,0.162,0.150,0.236,0.228,0.231,0.127,0.081,north-northwest,6.9,No
2021/05/01,23:50,0.163,0.150,0.237,0.226,0.230,0.128,0.081,north-northwest,6.8,No
